Temperature
17 17 17 17 17 17 17 17 17 17 16 16 16 16 16 15 15 15 15 15 15 14 14 14 14 13 13 13 13 12 12 12 12 12 12 12 11 11
17 17 17 17 17 17 17 17 17 17 16 16 16 15 15 15 15 15 14 14 14 14 13 13 13 13 12 12 12 12 12 11 11 11 11 11 11 10
17 17 17 17 17 17 17 16 16 16 16 16 15 15 15 14 14 14 14 14 13 13 13 12 12 12 12 12 11 11 11 10 10 10 10 10 10 9
16 16 16 16 16 16 16 16 16 16 16 16 15 14 14 14 14 13 13 13 13 12 12 12 11 11 11 11 10 10 10 10 9 9 9 9 9 8
16 16 16 16 16 16 16 16 16 16 15 15 15 14 14 13 13 13 12 12 12 11 11 11 10 10 10 10 10 9 9 9 9 8 8 8 8 8
15 15 15 15 15 15 15 15 15 15 15 14 14 14 13 13 12 12 12 11 11 10 10 10 9 9 9 9 9 8 8 8 8 7 7 7 7 7
15 15 15 15 15 15 15 15 15 14 14 14 13 13 12 12 12 11 11 10 10 9 9 9 9 8 8 8 8 7 7 7 7 7 7 6 6 6
15 15 15 14 14 14 14 14 14 14 14 13 13 13 12 12 11 11 11 10 9 8 8 8 8 8 7 7 7 7 6 6 6 6 6 6 6 5
14 14 14 14 14 14 14 13 13 13 13 13 12 12 12 11 11 10 10 9 9 8 8 7 7 7 7 6 6 6 6 6 5 5 5 5 5 5
14 14 14 14 13 13 13 13 12 12 12 12 12 11 11 10 10 10 9 9 8 8 7 7 6 6 6 6 5 5 5 5 5 5 5 5 4 4
13 13 13 13 13 12 12 12 12 11 11 11 10 10 10 10 9 9 8 8 7 7 7 6 6 6 5 5 5 5 5 5 5 4 4 4 4 4
13 12 12 12 11 11 11 11 11 10 10 10 9 9 9 9 8 8 8 8 7 6 6 6 6 5 5 5 5 5 5 4 4 4 4 4 4 4
12 12 11 11 11 10 10 10 10 9 9 9 9 8 8 8 7 7 7 7 7 6 6 6 5 5 5 5 4 4 4 4 4 4 4 4 4 4
11 11 10 10 10 9 9 9 9 8 8 8 8 7 7 7 6 6 6 6 6 6 6 5 5 5 5 4 4 4 4 4 4 4 4 4 4 4
10 10 10 9 9 8 8 8 8 8 8 7 7 7 6 6 6 6 6 5 5 5 5 5 5 5 4 4 4 4 4 4 4 4 4 3 3 3
9 9 9 8 8 8 7 7 7 7 7 6 6 6 6 5 5 5 5 5 5 4 4 4 4 4 4 4 4 4 4 4 4 4 4 4 4 3
9 8 8 8 7 7 7 7 6 6 6 6 6 5 5 5 5 5 5 4 4 4 4 4 4 4 4 4 4 4 4 4 4 4 4 4 4 4
8 8 8 7 7 7 7 6 6 6 5 5 5 5 5 5 4 4 4 4 4 4 4 4 4 4 4 4 4 4 4 4 4 4 4 3 4 4
8 7 7 7 7 6 6 6 6 5 5 5 5 5 4 4 4 4 4 4 4 4 4 4 4 4 4 4 4 4 4 4 4 4 4 3 3 3
7 7 7 7 6 6 6 5 5 5 5 5 5 4 4 4 4 4 4 4 4 4 4 4 4 4 3 3 3 4 4 3 3 3 3 3 3 3
7 7 6 6 6 6 5 5 5 5 5 5 4 4 4 4 4 4 4 4 4 4 4 4 4 4 4 3 3 4 4 4 3 3 3 3 3 3
7 6 6 6 6 5 5 5 5 5 5 4 4 4 4 4 4 4 4 4 4 4 4 4 4 4 3 3 3 3 4 4 4 3 3 3 3 2
6 6 6 6 5 5 5 5 5 5 4 4 4 4 4 4 4 4 4 4 4 4 4 4 4 4 3 3 3 3 3 3 3 3 4 3 3 3
Wind_Speed
5 5 4 3 4 4 4 5 5 4 2 1 1 2 4 6 8 9 10 12 12 12 12 12 13 13 13 13 12 12 12 12 12 12 11 11 11 11
4 5 4 3 3 3 4 4 4 4 3 1 1 2 4 7 10 11 11 13 13 13 13 13 13 13 12 12 12 12 12 12 12 12 12 12 12 11
4 5 4 3 3 2 3 3 3 3 4 2 2 3 4 6 9 11 11 12 12 13 13 13 13 12 12 12 11 11 11 11 11 11 11 11 11 11
5 5 4 3 3 2 3 3 3 4 5 5 2 2 4 5 7 8 9 10 11 13 13 12 12 12 12 12 11 11 11 10 10 10 10 10 10 10
5 6 5 5 4 3 4 4 4 5 4 6 4 2 3 4 5 7 9 9 10 11 12 12 12 13 12 11 11 10 10 9 9 9 9 9 9 9
4 4 4 5 5 6 5 5 6 7 7 7 6 3 3 3 4 5 6 5 6 8 10 11 12 12 12 11 10 9 9 8 8 8 8 8 9 9
4 4 4 6 7 6 6 7 7 7 7 7 5 4 3 4 4 3 6 6 5 5 5 6 7 8 8 8 7 7 7 8 8 8 8 8 9 9
5 4 4 5 8 9 9 9 9 8 8 6 5 6 4 4 4 5 5 5 3 2 3 3 4 3 4 5 5 6 6 6 7 7 8 8 9 10
5 5 5 6 8 8 11 12 10 9 7 6 7 5 5 4 6 5 4 3 3 2 2 2 2 2 3 3 5 5 6 7 7 8 8 9 10 11
5 6 7 6 7 10 10 10 9 8 7 6 6 5 5 6 5 6 6 6 4 3 2 2 2 1 2 4 5 6 6 7 8 9 9 10 11 11
5 6 7 8 10 13 12 12 11 9 13 15 14 13 12 12 11 8 6 6 3 2 2 2 1 1 1 2 5 7 7 8 9 9 10 11 11 10
6 6 8 9 11 12 11 11 11 8 8 10 11 11 12 11 9 6 6 5 3 2 1 2 1 0 0 1 3 5 6 7 9 10 10 11 11 8
6 5 5 11 12 11 10 9 10 9 8 8 8 7 7 7 7 7 5 4 3 2 2 2 1 1 0 1 2 4 5 5 7 8 10 11 11 8
6 5 6 11 12 11 9 11 13 10 7 7 7 6 5 5 4 6 7 6 4 3 3 3 1 1 1 0 2 3 5 6 5 6 8 10 10 10
7 11 12 13 12 10 12 13 10 7 7 7 6 4 3 3 4 5 6 7 7 6 4 2 2 2 1 1 1 2 3 4 6 7 8 8 7 7
9 11 13 12 10 10 9 7 5 5 6 6 5 4 3 4 4 3 3 3 3 3 5 4 2 2 1 1 1 2 3 4 5 7 7 7 8 7
9 7 6 5 6 6 5 5 4 5 5 4 5 4 4 4 3 3 2 3 3 2 2 3 4 1 2 2 1 3 4 4 5 5 5 6 7 9
9 6 6 6 6 6 6 5 4 4 4 5 5 4 4 4 3 2 2 2 2 1 1 1 2 2 1 1 5 4 4 5 5 6 4 5 7 8
6 6 6 6 6 6 6 5 4 4 4 5 5 4 4 4 3 3 2 2 1 1 0 1 1 1 2 3 3 5 4 5 5 5 5 5 6 8
4 5 5 5 5 5 5 5 5 5 4 4 4 4 4 4 3 3 3 2 1 1 0 1 1 1 1 3 3 4 6 5 5 6 6 5 6 10
5 5 5 5 5 5 5 5 5 5 5 4 4 4 4 4 3 3 3 3 2 1 1 2 2 3 2 2 3 4 4 6 7 6 6 6 7 7
5 5 5 5 5 5 5 5 5 5 5 5 4 4 4 4 4 4 3 3 2 2 2 2 2 1 1 2 4 6 6 7 8 10 11 9 5 6
5 5 5 5 5 4 5 5 6 5 5 5 5 4 4 4 3 3 3 3 3 3 2 2 2 1 2 2 4 5 7 7 6 7 7 10 12 16
Wind_Direction
199 193 199 204 197 196 182 173 169 185 203 181 135 59 86 93 99 103 106 111 112 111 110 108 105 103 100 95 89 84 78 72 67 62 55 48 42 36
192 192 203 207 196 194 191 189 181 172 176 145 114 81 95 102 97 100 103 103 103 108 109 108 107 105 101 95 89 84 77 70 64 58 53 48 43 37
190 188 201 195 186 190 179 178 175 157 157 132 87 79 86 99 96 97 98 97 95 100 105 104 102 101 99 93 89 83 76 70 63 57 52 46 41 36
193 184 194 182 173 172 162 166 162 153 149 145 125 88 80 101 101 95 92 93 93 92 95 98 97 98 96 93 88 82 76 71 64 56 49 43 37 31
186 182 180 165 163 153 147 144 137 130 126 138 135 105 88 97 95 90 85 81 88 88 87 89 93 95 94 93 87 81 75 69 62 53 43 35 28 22
168 167 164 164 166 155 146 138 130 124 121 127 128 120 106 100 108 110 98 81 80 81 82 84 87 88 88 85 81 75 69 62 54 43 31 24 17 11
145 149 150 150 154 151 147 143 140 135 133 135 135 128 132 133 138 134 122 106 77 71 83 75 78 78 73 71 67 63 60 53 44 31 20 12 7 2
142 130 124 128 128 124 127 131 138 145 150 147 146 148 154 147 138 141 138 128 112 49 84 70 64 70 58 59 50 48 42 33 25 18 11 4 358 354
141 136 125 117 116 115 105 99 97 106 130 144 146 153 154 162 149 139 129 114 119 119 110 80 44 50 24 24 30 29 22 17 12 8 4 359 354 349
128 134 130 122 120 119 109 95 83 73 89 104 121 121 124 133 133 132 124 105 88 61 84 96 41 19 3 357 11 12 9 7 2 357 355 354 351 345
105 112 120 118 120 119 114 108 97 83 82 93 99 102 108 118 124 120 123 125 110 69 42 106 93 12 344 336 348 359 2 360 355 351 350 350 348 344
104 103 112 121 124 122 124 124 119 112 107 97 87 84 88 93 103 121 140 139 129 125 115 116 114 88 30 333 329 342 353 352 351 349 346 346 345 339
122 115 114 119 118 117 118 124 129 126 116 109 100 89 82 78 75 80 97 124 125 122 144 140 130 116 116 312 320 325 339 339 339 339 343 343 342 338
131 126 122 123 120 118 114 120 120 118 117 111 106 100 95 89 80 79 84 83 84 108 141 145 136 150 135 7 326 328 329 332 333 329 334 338 339 336
120 123 120 118 113 109 115 121 121 121 122 118 116 108 97 94 92 84 75 76 73 73 86 114 136 144 159 204 297 314 318 320 326 328 328 329 324 324
112 113 108 103 101 106 113 115 116 124 127 125 121 107 99 99 91 85 85 82 79 57 43 58 102 153 161 220 260 299 306 306 316 324 321 315 314 311
125 115 113 116 116 116 115 112 115 121 120 121 123 117 112 107 95 86 88 89 93 86 42 23 24 38 222 225 271 295 306 307 307 317 318 318 316 317
126 133 137 139 140 141 141 133 127 130 131 131 130 130 130 124 111 98 99 107 108 101 60 14 8 21 18 249 231 266 298 306 312 315 312 315 317 321
127 142 147 150 150 150 148 142 140 140 136 140 138 138 135 132 129 129 125 120 121 120 35 356 12 29 355 337 314 239 265 306 313 316 315 307 304 312
143 150 153 154 154 152 151 147 143 142 141 147 149 149 150 150 152 153 156 157 165 181 265 286 266 263 267 301 302 295 273 273 302 310 314 308 296 296
158 158 159 158 159 161 160 157 155 157 158 159 161 159 159 160 167 173 176 176 185 205 251 282 295 284 258 257 289 307 305 287 270 276 300 308 316 318
168 168 166 164 166 168 164 160 159 162 165 168 169 168 168 173 180 184 187 191 207 223 252 284 310 278 229 276 305 313 315 320 314 296 272 259 292 313
175 172 168 168 168 164 163 166 171 176 179 179 176 176 176 181 189 193 198 207 217 232 254 281 297 282 280 281 294 303 307 314 320 323 318 303 284 280
Height
1572 1573 1574 1575 1577 1577 1578 1579 1580 1580 1581 1582 1583 1584 1584 1585 1586 1586 1587 1587 1588 1589 1589 1589 1589 1589 1588 1588 1588 1587 1587 1586 1585 1584 1583 1582 1580 1579
1568 1569 1570 1572 1573 1574 1575 1576 1577 1578 1578 1579 1580 1581 1582 1583 1583 1584 1585 1585 1586 1586 1587 1587 1587 1587 1586 1586 1585 1585 1584 1583 1582 1581 1580 1579 1577 1575
1564 1565 1567 1568 1569 1570 1571 1572 1573 1574 1575 1576 1577 1579 1580 1581 1581 1582 1583 1583 1584 1584 1585 1585 1585 1585 1584 1584 1583 1582 1581 1581 1580 1579 1577 1576 1574 1572
1560 1562 1563 1564 1566 1567 1568 1569 1570 1571 1572 1572 1574 1576 1577 1579 1579 1580 1581 1581 1582 1582 1583 1583 1583 1582 1582 1582 1581 1580 1579 1578 1577 1576 1575 1573 1571 1570
1556 1558 1559 1560 1562 1563 1564 1566 1567 1568 1569 1570 1571 1573 1574 1576 1577 1578 1578 1579 1580 1580 1581 1581 1581 1581 1580 1580 1579 1578 1577 1576 1575 1574 1572 1571 1569 1567
1553 1554 1555 1556 1558 1560 1561 1563 1564 1565 1566 1567 1568 1570 1571 1573 1574 1575 1576 1577 1577 1578 1579 1579 1579 1579 1579 1578 1578 1577 1576 1575 1573 1572 1570 1569 1567 1564
1549 1550 1551 1553 1555 1556 1558 1559 1561 1562 1563 1564 1566 1567 1569 1570 1571 1572 1573 1574 1575 1576 1576 1577 1577 1577 1577 1577 1576 1575 1574 1573 1571 1570 1568 1566 1564 1562
1545 1547 1548 1550 1552 1553 1555 1557 1559 1560 1561 1562 1563 1564 1566 1567 1569 1570 1571 1572 1573 1575 1575 1575 1575 1575 1575 1575 1574 1574 1573 1571 1570 1568 1566 1564 1562 1560
1543 1544 1546 1548 1549 1551 1552 1554 1555 1557 1559 1561 1561 1562 1564 1565 1566 1567 1569 1570 1570 1571 1573 1573 1574 1574 1574 1573 1572 1572 1571 1570 1568 1566 1564 1562 1560 1558
1541 1543 1544 1546 1547 1549 1550 1551 1553 1555 1556 1558 1560 1561 1562 1563 1565 1566 1567 1568 1569 1570 1571 1572 1572 1572 1572 1572 1571 1570 1569 1568 1566 1564 1562 1560 1558 1556
1539 1541 1542 1544 1545 1547 1548 1550 1551 1553 1555 1556 1558 1559 1560 1561 1563 1564 1565 1566 1567 1568 1569 1570 1570 1570 1570 1570 1570 1569 1568 1566 1564 1563 1561 1558 1556 1553
1537 1539 1541 1542 1544 1546 1547 1548 1550 1552 1553 1555 1556 1557 1559 1560 1561 1563 1564 1565 1566 1567 1567 1568 1568 1569 1569 1569 1568 1567 1566 1565 1563 1561 1559 1556 1554 1551
1535 1537 1539 1541 1543 1544 1546 1547 1549 1551 1552 1554 1555 1557 1558 1559 1561 1562 1563 1564 1565 1565 1566 1567 1568 1568 1568 1568 1567 1566 1565 1563 1562 1560 1557 1555 1552 1549
1534 1536 1538 1540 1542 1543 1545 1547 1548 1550 1552 1553 1555 1556 1557 1559 1560 1561 1562 1563 1564 1565 1566 1566 1566 1567 1567 1566 1566 1565 1564 1563 1561 1558 1556 1553 1550 1548
1533 1535 1537 1538 1540 1543 1545 1547 1548 1550 1551 1553 1554 1556 1558 1559 1560 1561 1562 1563 1564 1565 1565 1565 1566 1566 1566 1565 1565 1564 1563 1561 1559 1557 1554 1551 1549 1546
1532 1534 1536 1538 1540 1542 1544 1547 1548 1550 1551 1553 1555 1557 1558 1559 1561 1562 1562 1563 1564 1565 1565 1565 1565 1565 1565 1565 1564 1563 1562 1560 1558 1556 1553 1550 1547 1544
1532 1533 1536 1538 1539 1541 1544 1546 1548 1550 1552 1553 1555 1557 1558 1560 1561 1562 1563 1564 1565 1565 1566 1566 1565 1565 1565 1564 1563 1562 1561 1559 1557 1554 1551 1548 1546 1543
1532 1533 1535 1537 1539 1541 1543 1545 1548 1550 1552 1554 1555 1557 1559 1560 1562 1563 1563 1564 1565 1565 1566 1566 1565 1565 1564 1564 1563 1561 1559 1557 1555 1552 1549 1546 1543 1541
1531 1532 1534 1536 1538 1540 1543 1545 1547 1550 1552 1553 1555 1557 1558 1560 1562 1563 1563 1564 1564 1565 1565 1565 1565 1564 1563 1562 1562 1560 1558 1555 1553 1550 1548 1544 1541 1538
1530 1532 1533 1536 1538 1540 1542 1544 1547 1549 1551 1553 1555 1556 1558 1560 1561 1562 1563 1563 1564 1564 1564 1564 1564 1563 1562 1562 1560 1559 1557 1554 1551 1548 1545 1542 1539 1535
1528 1530 1532 1535 1537 1539 1542 1544 1546 1548 1550 1552 1554 1556 1557 1559 1560 1561 1562 1563 1563 1563 1563 1563 1563 1562 1561 1560 1558 1556 1555 1552 1549 1546 1542 1539 1535 1531
1527 1529 1532 1534 1536 1539 1541 1543 1545 1547 1549 1551 1553 1555 1556 1558 1559 1560 1561 1562 1562 1562 1562 1562 1561 1560 1559 1558 1556 1554 1552 1550 1547 1544 1541 1538 1534 1529
1526 1529 1531 1533 1535 1538 1540 1542 1544 1546 1548 1550 1552 1553 1555 1556 1557 1558 1559 1560 1560 1560 1560 1560 1559 1558 1557 1556 1554 1552 1549 1546 1544 1541 1538 1536 1532 1528